Weather History for KHQZ - June, 2014

Change the Weather History Date:

Monday, June 9, 2014

  Actual Average (KDFW) Record (KDFW)
Temperature  
Mean Temperature 68 °F 80 °F  
Max Temperature 75 °F 90 °F 102 °F (1911)
Min Temperature 62 °F 70 °F 59 °F (1978)
Degree Days  
Heating Degree Days 0 0  
Month to date heating degree days 0  
Since 1 June heating degree days 0  
Since 1 July heating degree days 2284  
Cooling Degree Days 4 15  
Month to date cooling degree days 129  
Year to date cooling degree days 551  
Since 1 June cooling degree days 129  
Growing Degree Days 18 (Base 50)    
Moisture  
Dew Point 67 °F    
Average Humidity 87    
Maximum Humidity 100    
Minimum Humidity 65    
Precipitation  
Precipitation 0.00 in 0.14 in 1.58 in (1923)
Month to date precipitation 1.29  
Year to date precipitation 17.54  
Sea Level Pressure  
Sea Level Pressure 29.79 in    
Wind  
Wind Speed 5 mph (South)    
Max Wind Speed 15 mph    
Max Gust Speed 22 mph    
Visibility 9 miles    
Events Rain , Thunderstorm    
T = Trace of Precipitation, MM = Missing Value Source: NWS Daily Summary

Daily Weather History Graph

Daily Weather History Graph

Search for Another Location

Airport or City:

Trip Planner

Search our weather history database for the weather conditions in past years. The results will help you decide how hot, cold, wet, or windy it might be!

Date:

Astronomy

Jun. 09, 2014 Rise Set
Actual Time 6:17 AM CDT 8:33 PM CDT
Civil Twilight 5:49 AM CDT 9:01 PM CDT
Nautical Twilight 5:14 AM CDT 9:36 PM CDT
Astronomical Twilight 4:36 AM CDT 10:14 PM CDT
Moon 5:05 PM CDT (6/9) 3:34 AM CDT (6/9)
Length of Visible Light 15h 12m
Length of Day
14h 15m
Waxing Gibbous, 85% of the Moon is Illuminated
Jun 9
Waxing Gibbous
Jun 12
Full
Jun 19
Last Quarter
Jun 27
New
Jul 5
First Quarter

Hourly Weather History & Observations

Time (CDT) Temp. Dew Point Humidity Pressure Visibility Wind Dir Wind Speed Gust Speed Precip Events Conditions
12:15 AM 75.9 °F 72.0 °F 87% 29.81 in 10.0 mi Calm Calm - N/A   Scattered Clouds
12:35 AM 74.7 °F 72.5 °F 93% 29.82 in 10.0 mi Calm Calm - N/A   Clear
12:55 AM 74.3 °F 72.0 °F 92% 29.81 in 10.0 mi Calm Calm - N/A   Clear
1:15 AM 73.9 °F 71.8 °F 93% 29.80 in 10.0 mi Calm Calm - N/A   Clear
1:35 AM 74.3 °F 71.8 °F 92% 29.79 in 10.0 mi Calm Calm - N/A   Clear
1:55 AM 73.4 °F 71.6 °F 94% 29.78 in 10.0 mi ESE 3.5 mph - N/A   Clear
2:15 AM 73.9 °F 72.0 °F 93% 29.78 in 10.0 mi SE 4.6 mph - N/A   Mostly Cloudy
2:35 AM 74.3 °F 72.0 °F 92% 29.78 in 10.0 mi SE 4.6 mph - N/A   Overcast
2:55 AM 74.5 °F 71.2 °F 90% 29.78 in 10.0 mi SSE 5.8 mph - N/A   Mostly Cloudy
3:15 AM 74.5 °F 70.5 °F 87% 29.77 in 10.0 mi SSE 8.1 mph - N/A   Mostly Cloudy
3:35 AM 74.5 °F 70.0 °F 86% 29.76 in 10.0 mi SSE 6.9 mph - N/A   Scattered Clouds
3:55 AM 74.8 °F 70.0 °F 85% 29.76 in 10.0 mi SSE 6.9 mph - N/A   Mostly Cloudy
4:15 AM 74.7 °F 69.8 °F 85% 29.76 in 10.0 mi SSE 8.1 mph - N/A   Overcast
4:35 AM 74.5 °F 69.8 °F 85% 29.76 in 7.0 mi SSE 10.4 mph - N/A   Scattered Clouds
4:55 AM 74.7 °F 69.8 °F 85% 29.75 in 10.0 mi SSE 10.4 mph 16.1 mph N/A   Scattered Clouds
5:15 AM 74.5 °F 70.2 °F 86% 29.74 in 7.0 mi SSE 11.5 mph - N/A   Clear
5:35 AM 74.5 °F 70.3 °F 87% 29.76 in 10.0 mi South 12.7 mph 16.1 mph N/A   Scattered Clouds
6:50 AM 62.6 °F 62.6 °F 100% 29.80 in 2.5 mi NW 15.0 mph 21.9 mph N/A Thunderstorm Thunderstorm
7:13 AM 64.4 °F 62.6 °F 94% 29.80 in 5.0 mi NNW 5.8 mph - N/A Thunderstorm Overcast
7:50 AM 64.4 °F 62.6 °F 94% 29.83 in 10.0 mi NW 8.1 mph - N/A Thunderstorm Overcast
8:50 AM 64.4 °F 62.6 °F 94% 29.88 in 3.0 mi North - - N/A Rain Rain
10:55 AM 62.6 °F 62.6 °F 100% 29.79 in 10.0 mi SE 10.4 mph 19.6 mph N/A   Overcast
11:30 AM 66.2 °F 62.6 °F 88% 29.83 in 10.0 mi South 6.9 mph - N/A   Mostly Cloudy
11:50 AM 66.2 °F 64.4 °F 94% 29.83 in 10.0 mi South 10.4 mph - N/A   Mostly Cloudy
12:04 PM 68.0 °F 64.4 °F 88% 29.83 in 10.0 mi SSW 6.9 mph - N/A   Mostly Cloudy
1:50 PM 71.6 °F 62.6 °F 73% 29.81 in 10.0 mi SW 10.4 mph - N/A   Mostly Cloudy
2:55 PM 75.2 °F 62.6 °F 65% 29.81 in 10.0 mi SW 10.4 mph - N/A   Mostly Cloudy
3:50 PM 75.2 °F 62.6 °F 65% 29.80 in 10.0 mi WSW 10.4 mph - N/A   Mostly Cloudy
4:50 PM 73.4 °F 66.2 °F 78% 29.79 in 5.0 mi South 6.9 mph - N/A   Overcast
5:50 PM 73.4 °F 66.2 °F 78% 29.79 in 10.0 mi SSW 6.9 mph - N/A   Mostly Cloudy
6:50 PM 73.4 °F 64.4 °F 73% 29.78 in 10.0 mi SSW 4.6 mph - N/A   Scattered Clouds
7:50 PM 73.4 °F 66.2 °F 78% 29.76 in 10.0 mi SSW 6.9 mph - N/A   Clear
9:55 PM 69.1 °F 64.4 °F 85% 29.78 in 10.0 mi South 4.6 mph - N/A   Clear
10:15 PM 66.2 °F 63.7 °F 92% 29.78 in 10.0 mi South 4.6 mph - N/A   Clear
10:35 PM 66.2 °F 63.7 °F 92% 29.78 in 10.0 mi South 5.8 mph - N/A   Clear
10:55 PM 65.5 °F 63.0 °F 92% 29.78 in 10.0 mi South 5.8 mph - N/A   Clear
11:15 PM 64.6 °F 62.6 °F 93% 29.77 in 10.0 mi South 5.8 mph - N/A   Clear
11:35 PM 67.5 °F 63.5 °F 87% 29.77 in 10.0 mi SSW 4.6 mph - N/A   Clear
11:55 PM 66.2 °F 62.6 °F 88% 29.77 in 10.0 mi SW 4.6 mph - N/A   Clear